Hourly Weather Roundup
Issued by NWS Central Illinois

Home | Current Version | Previous Version | Text Only | Print | Product List | Glossary On
Versions: 1 2 3 4 5 6 7 8 9 10 11 12 13 14 15 16 17 18 19 20 21 22 23 24 25 26 27 28 29 30 31 32 33 34 35 36 37 38 39 40 41 42 43 44 45 46 47 48 49 50
000
NZUS43 KILX 221810
HWRILX

Area Weather Roundup
National Weather Service Lincoln IL
100 PM CDT SUN APR 22 2018

NOTE:  "FAIR" indicates few or no clouds below 12,000 feet, with
       no sigificant weather and/or obstructions to visibility.


CITY           SKY/WX    TMP DP  RH WIND       PRES   REMARKS
Bloomington    CLOUDY    61  26  26 E21       30.23F
6HR MIN TEMP:  43; 6HR MAX TEMP:  62;

Champaign      FAIR      66  29  24 E21       30.21F
6HR MIN TEMP:  47; 6HR MAX TEMP:  66;

Danville       CLOUDY    61  31  31 E10       30.22S
6HR MIN TEMP:  45; 6HR MAX TEMP:  61;

Decatur        FAIR      64  32  30 E18       30.19F
6HR MIN TEMP:  48; 6HR MAX TEMP:  64;

Effingham      PTSUNNY   64  40  41 NE8       30.16F
6HR MIN TEMP:  50; 6HR MAX TEMP:  64;

Flora          CLOUDY    63  39  40 NE9       30.14F
6HR MIN TEMP:  51; 6HR MAX TEMP:  63;

Galesburg      FAIR      68  31  24 NE16      30.22F
6HR MIN TEMP:  50; 6HR MAX TEMP:  69;

Jacksonville   CLOUDY    60  35  39 E17       30.18R
6HR MIN TEMP:  46; 6HR MAX TEMP:  65;

Lacon          FAIR      62  24  23 NE14      30.24F
6HR MIN TEMP:  44; 6HR MAX TEMP:  62;

Lawrenceville  FAIR      68  37  32 NE13      30.15F
6HR MIN TEMP:  52; 6HR MAX TEMP:  68;

Litchfield     CLOUDY    58  38  47 E12       30.13F
6HR MIN TEMP:  49; 6HR MAX TEMP:  59;

$$


CITY           SKY/WX    TMP DP  RH WIND       PRES   REMARKS
Lincoln        CLOUDY    63  32  30 E14G22    30.21S
6HR MIN TEMP:  47; 6HR MAX TEMP:  63;

Macomb         CLOUDY    65  33  30 E16       30.21F
6HR MIN TEMP:  45; 6HR MAX TEMP:  66;

Mattoon        FAIR      64  35  34 NE16      30.16F
6HR MIN TEMP:  50; 6HR MAX TEMP:  65;

Mt Carmel AP   FAIR      65  38  37 NE15      30.14F
6HR MIN TEMP:  51; 6HR MAX TEMP:  65;

Olney-Noble AP CLOUDY    62  33  33 E10       30.14F
Paris AP       FAIR      65  35  33 E14       30.20F
6HR MIN TEMP:  46; 6HR MAX TEMP:  65;

Peoria         FAIR      64  28  25 E16G26    30.21F
6HR MIN TEMP:  47; 6HR MAX TEMP:  65;

Pontiac        FAIR      64  14  14 E18       30.25F
6HR MIN TEMP:  45; 6HR MAX TEMP:  65;

Rantoul        CLOUDY    62  31  31 E16       30.24S
6HR MIN TEMP:  46; 6HR MAX TEMP:  62;

Robinson       FAIR      64  40  40 NE10      30.17F
6HR MIN TEMP:  48; 6HR MAX TEMP:  64;

Springfield    CLOUDY    61  34  36 E14       30.19F
6HR MIN TEMP:  48; 6HR MAX TEMP:  63;

Taylorville    CLOUDY    59  33  36 NE16      30.16F
6HR MIN TEMP:  48; 6HR MAX TEMP:  59;

$$

...REGIONAL REPORTS...


CITY           SKY/WX    TMP DP  RH WIND       PRES   REMARKS
Chicago O`Hare PTSUNNY   58  24  27 E16       30.32F
Kankakee       FAIR      65  17  16 E15       30.27F
La Salle       FAIR      66  24  20 E12G26    30.27F
Moline         FAIR      65  16  15 E18       30.24F
Mount Sterling PTSUNNY   65  39  38 E14       30.15F
Mount Vernon   FAIR      60  40  47 NE9       30.12F
Pittsfield     CLOUDY    64  41  43 E13       30.16S
Quincy         SUNNY     68  39  34 E14G22    30.15F
Rockford       PTSUNNY   61  25  25 E14G22    30.32F
$$


CITY           SKY/WX    TMP DP  RH WIND       PRES   REMARKS
Burlington     SUNNY     68  32  26 E14       30.18F
Cedar Rapids   FAIR      64  24  21 E16G24    30.24F
Des Moines     MOSUNNY   66  29  24 NE14      30.21F
Kirksville     CLOUDY    65  41  41 E10       30.16F
Ottumwa        SUNNY     65  31  28 E14G23    30.19F
St Louis       CLOUDY    58  41  53 E10       30.11F
$$


CITY           SKY/WX    TMP DP  RH WIND       PRES   REMARKS
Terre Haute    FAIR      65  36  34 NE10      30.19F
Evansville     PTSUNNY   69  45  41 E9G17     30.12F
Indianapolis   PTSUNNY   61  31  32 E16       30.23F
Lafayette      FAIR      61  31  32 E15       30.25F
Madison        PTSUNNY   59  28  30 SE7       30.34F
Milwaukee      PTSUNNY   51  29  42 E5        30.38F
$$





USA.gov is the U.S. government's official web portal to all federal, state and local government web resources and services.